Weather History for KAUW - September, 2014

Change the Weather History Date:

Sunday, September 14, 2014

  Actual Average Record
Temperature  
Mean Temperature 56 °F 59 °F  
Max Temperature 65 °F 70 °F 94 °F (1939)
Min Temperature 46 °F 49 °F 27 °F (1923)
Degree Days  
Heating Degree Days 9 7  
Month to date heating degree days 89 67  
Since 1 July heating degree days 143 133  
Cooling Degree Days 0 1  
Month to date cooling degree days 9 23  
Year to date cooling degree days 335 398  
Growing Degree Days 5 (Base 50)    
Moisture  
Dew Point 43 °F    
Average Humidity 67    
Maximum Humidity 82    
Minimum Humidity 52    
Precipitation  
Precipitation 0.00 in 0.13 in 1.07 in (1967)
Month to date precipitation 5.31 1.82  
Year to date precipitation 31.96 24.03  
Snow  
Snow 0.00 in 0.00 in 0.00 in ()
Month to date snowfall 0.0 0.0  
Since 1 July snowfall 0.0 0.0  
Since 1 September snowfall 0.0 0.0  
Snow Depth 0.00 in    
Sea Level Pressure  
Sea Level Pressure 30.16 in    
Wind  
Wind Speed 10 mph (SW)    
Max Wind Speed 23 mph    
Max Gust Speed 28 mph    
Visibility 10 miles    
Events      
T = Trace of Precipitation, MM = Missing Value Source: NWS Daily Summary

Daily Weather History Graph

Daily Weather History Graph

Search for Another Location

Airport or City:

Trip Planner

Search our weather history database for the weather conditions in past years. The results will help you decide how hot, cold, wet, or windy it might be!

Date:

Astronomy

Sep. 14, 2014 Rise Set
Actual Time 6:36 AM CDT 7:11 PM CDT
Civil Twilight 6:06 AM CDT 7:40 PM CDT
Nautical Twilight 5:31 AM CDT 8:15 PM CDT
Astronomical Twilight 4:55 AM CDT 8:51 PM CDT
Moon 10:48 PM CDT (9/14) 12:57 PM CDT (9/14)
Length of Visible Light 13h 34m
Length of Day
12h 35m
Waning Gibbous, 64% of the Moon is Illuminated
Sep 14
Waning Gibbous
Sep 15
Last Quarter
Sep 24
New
Oct 1
First Quarter
Oct 8
Full

Hourly Weather History & Observations

Time (CDT) Temp. Dew Point Humidity Pressure Visibility Wind Dir Wind Speed Gust Speed Precip Events Conditions
12:54 AM 46.9 °F 39.9 °F 77% 30.27 in 10.0 mi South 6.9 mph - N/A   Overcast
1:54 AM 46.9 °F 41.0 °F 80% 30.27 in 10.0 mi SSW 5.8 mph - N/A   Overcast
2:54 AM 46.9 °F 39.9 °F 77% 30.25 in 10.0 mi South 6.9 mph - N/A   Overcast
3:54 AM 46.9 °F 39.9 °F 77% 30.24 in 10.0 mi South 10.4 mph - N/A   Overcast
4:54 AM 46.9 °F 39.0 °F 74% 30.23 in 10.0 mi SSW 9.2 mph - N/A   Overcast
5:54 AM 46.9 °F 39.9 °F 77% 30.22 in 10.0 mi SSW 10.4 mph - N/A   Overcast
6:54 AM 48.0 °F 39.9 °F 74% 30.22 in 10.0 mi SSW 8.1 mph - N/A   Overcast
7:54 AM 48.0 °F 39.9 °F 74% 30.22 in 10.0 mi South 9.2 mph - N/A   Overcast
8:54 AM 51.1 °F 39.9 °F 66% 30.20 in 10.0 mi SW 11.5 mph 23.0 mph N/A   Clear
9:54 AM 54.0 °F 42.1 °F 64% 30.18 in 10.0 mi SSW 12.7 mph - N/A   Clear
10:54 AM 57.0 °F 43.0 °F 59% 30.15 in 10.0 mi SSW 15.0 mph 25.3 mph N/A   Clear
11:54 AM 59.0 °F 44.1 °F 58% 30.13 in 10.0 mi SW 16.1 mph 23.0 mph N/A   Clear
12:54 PM 61.0 °F 45.0 °F 56% 30.11 in 10.0 mi SSW 13.8 mph 25.3 mph N/A   Mostly Cloudy
1:54 PM 61.0 °F 45.0 °F 56% 30.10 in 10.0 mi WSW 15.0 mph 21.9 mph N/A   Overcast
2:54 PM 63.0 °F 46.9 °F 56% 30.09 in 9.0 mi WSW 17.3 mph 25.3 mph N/A   Overcast
3:54 PM 64.0 °F 48.0 °F 56% 30.08 in 10.0 mi West 15.0 mph 21.9 mph N/A   Scattered Clouds
4:54 PM 62.1 °F 48.0 °F 60% 30.08 in 10.0 mi West 11.5 mph - N/A   Mostly Cloudy
5:54 PM 62.1 °F 44.1 °F 52% 30.08 in 10.0 mi West 15.0 mph - N/A   Clear
6:54 PM 57.0 °F 45.0 °F 64% 30.09 in 10.0 mi West 8.1 mph - N/A   Clear
7:54 PM 54.0 °F 46.0 °F 75% 30.10 in 10.0 mi West 8.1 mph - N/A   Clear
8:54 PM 55.0 °F 44.1 °F 67% 30.11 in 10.0 mi WNW 4.6 mph - N/A   Clear
9:54 PM 54.0 °F 44.1 °F 69% 30.11 in 10.0 mi NW 4.6 mph - N/A   Clear
10:54 PM 52.0 °F 44.1 °F 74% 30.12 in 10.0 mi WNW 4.6 mph - N/A   Clear
11:54 PM 51.1 °F 44.1 °F 77% 30.13 in 10.0 mi NW 3.5 mph - N/A   Clear